Location: ?????????
(38.5999°N, 22.7695°E)
Time: 11:39:01
(UTC+00:00)

SL-8 R/B - Pass Details

Date: 23 May 2024
Orbit: 652 x 662 km, 48.4° (Epoch: 19 June)

Event Time Altitude Azimuth Distance (km) Brightness Sun altitude
Rises 01:02:16 0° 301° (WNW) 2,977 7.0 -20.3°
Reaches altitude 10° 01:04:37 10° 299° (WNW) 2,065 6.1 -20.0°
Maximum altitude 01:09:21 68° 217° (SW) 709 3.5 -19.4°
Drops below altitude 10° 01:14:05 10° 135° (SE) 2,063 6.2 -18.8°
Sets 01:16:26 0° 133° (SE) 2,973 7.1 -18.5°
